Location: Volkssternwarte_EN
(51.3230°N, 7.4010°E)
Time: 12:55:26
(UTC+02:00)

ISS - Visible Passes

Search period start: 22 October 2019 00:00
Search period end: 31 October 2019 23:00
Orbit: 411 x 421 km, 51.6° (Epoch: 22 October)

Date Brightness Start Highest point End Pass type
(mag) Time Alt. Az. Time Alt. Az. Time Alt. Az.
25 Oct -1.6 07:36:36 10° SSW 07:39:30 27° SSE 07:42:23 10° E visible
26 Oct -1.2 06:48:36 10° S 06:51:03 19° SE 06:53:30 10° E visible
27 Oct -0.9 05:01:02 10° SSE 05:02:39 13° SE 05:04:16 10° ESE visible
27 Oct -2.8 06:35:31 10° SW 06:38:47 49° SSE 06:42:03 10° E visible
28 Oct -2.4 05:47:33 13° SW 05:50:15 35° SSE 05:53:22 10° E visible
29 Oct -2.0 05:01:15 24° SSE 05:01:44 25° SSE 05:04:34 10° E visible
29 Oct -3.6 06:34:48 10° WSW 06:38:10 77° SSE 06:41:33 10° E visible
30 Oct -0.7 04:14:50 14° ESE 04:14:50 14° ESE 04:15:37 10° E visible
30 Oct -3.4 05:47:45 24° SW 05:49:32 62° SSE 05:52:53 10° E visible
31 Oct -2.9 05:01:14 44° SE 05:01:14 44° SE 05:04:11 10° E visible
31 Oct -3.8 06:34:12 10° W 06:37:35 85° N 06:40:58 10° E visible
